[[{"header":{"parameterUnit":"m.s-1","parameterCategory":1,"la1":30.2991,"la2":30.254,"lo1":-89.0895,"lo2":-89.0444,"dy":0.0017,"dx":0.0017,"nx":28,"ny":28,"refTime":"2023-07-19T09:00:00:Z","depth":0,"parameterNumber":2,"parameterNumberName":"U-component_of_WINDS"},"data":[0,0,0,0,0,0,0,0,0,0,0,0,0,0,0,0,0,0,0,0,0,0,0,0,0,0,0,0,0,0,0,0,0,0,0,0,0,0,0,0,0,0,0,0,0,0,0,0,0,0,0,0,0,0,0,0,0,0,1.7078,1.7078,0,1.71,1.71,1.7101,1.705,1.7049,1.7047,1.7045,1.707,1.7072,1.7074,0,0,0,0,0,0,0,0,0,0,0,0,0,1.6992,1.6994,1.7078,1.7078,1.7078,1.71,1.71,1.7101,1.705,1.7048,1.7046,1.7045,1.7069,1.7072,1.7074,0,0,0,0,0,0,0,0,0,0,0,0,0,1.7023,1.6994,1.7078,1.7056,1.7054,1.71,1.71,1.7101,1.7051,1.7048,1.7046,1.7044,1.7068,1.7072,1.7075,1.7144,0,0,1.7085,1.7086,0,0,0,0,0,0,0,0,1.7021,1.7026,1.7059,1.7058,1.7056,1.707,1.7079,1.7115,1.7051,1.7052,1.7045,1.7042,1.7072,1.7075,1.7084,1.7145,1.7146,1.7085,1.7087,1.7088,1.7089,0,0,0,0,0,0,0,1.7019,1.7025,1.7087,1.7059,1.7057,1.7045,1.7047,1.7086,1.7076,1.7052,1.7048,1.7052,1.7071,1.7081,1.7085,1.7146,1.7085,1.7088,1.709,1.7091,1.7261,1.7263,0,0,0,0,0,0,1.702,1.7024,1.7086,1.7087,1.7032,1.7048,1.705,1.7068,1.7075,1.7074,1.7054,1.7049,1.7077,1.7081,1.7085,1.7164,1.7088,1.7091,1.7093,1.7258,1.7261,1.7264,0,0,0,0,0,0,1.7018,1.7026,1.7085,1.7055,1.7061,1.7052,1.7072,1.707,1.708,1.7076,1.7074,1.7066,1.7075,1.7081,1.7129,1.7164,1.7093,1.7096,1.7255,1.7259,1.7263,1.7324,0,0,0,0,0,0,1.7016,1.7026,1.7052,1.7055,1.7063,1.7128,1.7075,1.7072,1.7086,1.708,1.7088,1.7087,1.7074,1.7124,1.7132,1.7167,1.7098,1.7252,1.7257,1.7261,1.7318,1.7329,1.7338,0,0,0,0,0,1.7013,1.7069,1.7054,1.7061,1.7096,1.7131,1.7135,1.7118,1.7089,1.7115,1.7112,1.7086,1.7159,1.7129,1.7138,1.7175,1.725,1.7256,1.7261,1.7314,1.7327,1.7338,0,0,0,0,0,0,1.7072,1.7069,1.7052,1.7111,1.7121,1.7122,1.7154,1.7133,1.7153,1.7147,1.7126,1.7128,1.7179,1.7182,1.7149,1.724,1.7199,1.7207,1.7237,1.7249,1.7259,1.7257,1.7101,0,0,0,0,0,1.7091,1.712,1.7116,1.7169,1.7175,1.7164,1.7178,1.7164,1.7175,1.7179,1.7179,1.719,1.7215,1.7232,1.7256,1.7319,1.7318,1.7348,1.7358,1.7366,1.7373,1.7404,1.7416,1.7283,1.7283,1.7283,0,0,1.7133,1.7135,1.7154,1.718,1.7187,1.7216,1.7168,1.7202,1.7223,1.7184,1.7228,1.7229,1.724,1.7295,1.7319,1.7299,1.7409,1.7373,1.738,1.7382,1.7411,1.7424,1.7435,1.7287,1.7286,1.7286,0,0,1.7222,1.7228,1.727,1.7277,1.7286,1.7278,1.7288,1.7292,1.729,1.7334,1.7305,1.733,1.7375,1.7382,1.7392,1.7482,1.7458,1.749,1.7542,1.7572,1.7583,1.7592,1.7622,1.7633,1.7497,1.7497,1.7497,0,1.7272,1.7315,1.7295,1.733,1.7341,1.7306,1.7349,1.7356,1.7373,1.7382,1.7359,1.7411,1.7416,1.7471,1.7493,1.7503,1.7513,1.7489,1.7583,1.7592,1.76,1.7628,1.764,1.7501,1.75,1.75,1.75,0,1.7375,1.7405,1.7439,1.7454,1.7469,1.7508,1.7493,1.7511,1.7496,1.749,1.7534,1.7538,1.756,1.7572,1.7559,1.7625,1.7612,1.7586,1.7544,1.7616,1.7643,1.7654,1.7506,1.7505,1.7503,1.7503,0,0,1.7504,1.7505,1.7518,1.7523,1.7529,1.7552,1.7588,1.7608,1.7623,1.7636,1.7665,1.7702,1.7677,1.7688,1.7674,1.7701,1.7769,1.7672,1.7672,1.7688,1.784,1.7859,1.7872,1.7754,1.7756,1.7758,1.7839,0,1.759,1.7652,1.7634,1.7695,1.7721,1.7687,1.7718,1.7725,1.7721,1.7742,1.7737,1.7762,1.7729,1.7735,1.776,1.7756,1.7799,1.775,1.778,1.7781,1.7777,1.7886,1.7906,1.7983,1.7849,1.7851,1.7852,0,1.77,1.7715,1.7778,1.7778,1.7788,1.7816,1.7832,1.7853,1.786,1.7854,1.7866,1.7845,1.788,1.7839,1.7886,1.7852,1.7863,1.7863,1.7865,1.7867,1.782,1.7889,1.8007,1.8018,1.7869,1.7867,1.7866,0,1.7785,1.7821,1.7862,1.7868,1.7869,1.7889,1.7891,1.7895,1.7907,1.7921,1.7929,1.7947,1.7957,1.7972,1.7957,1.7928,1.8005,1.7963,1.8001,1.8001,1.8018,1.8017,1.8138,1.8028,1.8027,1.8027,1.8027,0,1.7883,1.7923,1.79,1.7926,1.7968,1.7947,1.799,1.7988,1.7991,1.8016,1.7988,1.8011,1.7991,1.8012,1.8001,1.804,1.8045,1.8041,1.8037,1.8043,1.8043,1.8049,1.8043,1.803,1.803,1.8029,1.8028,0,1.7985,1.7971,1.8014,1.8011,1.801,1.8042,1.8039,1.8062,1.8054,1.8085,1.8091,1.8079,1.8103,1.8089,1.8114,1.8106,1.8156,1.8146,1.8154,1.815,1.8188,1.8184,1.8317,1.8332,1.8213,1.8214,1.8215,0,1.8048,1.8077,1.8076,1.8089,1.8092,1.8115,1.8126,1.8106,1.8119,1.8128,1.815,1.817,1.8186,1.8224,1.8218,1.8236,1.8225,1.827,1.8228,1.8231,1.8224,1.8222,1.8223,1.8279,1.828,1.8281,1.8282,0,1.816,1.8151,1.8169,1.8183,1.8198,1.8209,1.8217,1.823,1.821,1.8226,1.8248,1.826,1.8284,1.8304,1.8319,1.832,1.8298,1.8295,1.8305,1.831,1.8312,1.831,1.8175,1.8292,1.8291,1.8291,1.829,1.829,1.8243,1.8267,1.8268,1.8288,1.8292,1.83,1.8321,1.8315,1.8333,1.8349,1.8337,1.8363,1.8367,1.8384,1.8388,1.8408,1.839,1.8404,1.8408,1.8411,1.8415,1.831,1.8411,1.8411,1.8411,1.841,1.841,0,1.8353,1.8351,1.837,1.8381,1.8397,1.8373,1.838,1.8395,1.8418,1.8423,1.8438,1.8463,1.8482,1.8476,1.8493,1.851,1.85,1.8515,1.8513,1.8513,1.8432,1.8421,1.8523,1.8522,1.8522,1.8522,1.8522,1.8522,1.8411,1.8448,1.8439,1.8478,1.8476,1.8501,1.8507,1.8514,1.8517,1.8546,1.8561,1.8557,1.8557,1.8573,1.8589,1.8587,1.8594,1.8612,1.8606,1.853,1.8519,1.8508,1.8498,1.8614,1.8615,1.8686,1.8686,1.8687]},{"header":{"parameterUnit":"m.s-1","parameterCategory":1,"la1":30.2991,"la2":30.254,"lo1":-89.0895,"lo2":-89.0444,"dy":0.0017,"dx":0.0017,"nx":28,"ny":28,"refTime":"2023-07-19T09:00:00:Z","depth":0,"parameterNumber":3,"parameterNumberName":"V-component_of_WINDS"},"data":[0,0,0,0,0,0,0,0,0,0,0,0,0,0,0,0,0,0,0,0,0,0,0,0,0,0,0,0,0,0,0,0,0,0,0,0,0,0,0,0,0,0,0,0,0,0,0,0,0,0,0,0,0,0,0,0,0,0,3.632,3.632,0,3.6397,3.6397,3.6398,3.6367,3.6365,3.6363,3.6361,3.6434,3.6438,3.6442,0,0,0,0,0,0,0,0,0,0,0,0,0,3.6138,3.6141,3.6319,3.632,3.6321,3.6396,3.6398,3.6399,3.6367,3.6365,3.6362,3.636,3.6433,3.6438,3.6442,0,0,0,0,0,0,0,0,0,0,0,0,0,3.6216,3.6142,3.6319,3.6315,3.6315,3.6396,3.6398,3.6399,3.6367,3.6365,3.6362,3.6359,3.6432,3.6437,3.6442,3.6531,0,0,3.6459,3.6462,0,0,0,0,0,0,0,0,3.6211,3.6222,3.6315,3.6315,3.6316,3.6369,3.636,3.6443,3.6368,3.6347,3.6361,3.6358,3.6415,3.6421,3.6442,3.6534,3.6537,3.646,3.6463,3.6465,3.6467,0,0,0,0,0,0,0,3.6206,3.6219,3.635,3.6316,3.6317,3.6307,3.6315,3.6376,3.6395,3.6349,3.6347,3.6357,3.6414,3.6436,3.6443,3.6538,3.646,3.6464,3.6468,3.647,3.6704,3.6707,0,0,0,0,0,0,3.6201,3.6215,3.6347,3.6352,3.6256,3.6312,3.6321,3.6355,3.6394,3.6398,3.6359,3.6355,3.6428,3.6437,3.6445,3.655,3.6465,3.647,3.6474,3.6702,3.6705,3.6708,0,0,0,0,0,0,3.6198,3.6214,3.6344,3.6283,3.6299,3.6318,3.6356,3.6358,3.638,3.6402,3.6405,3.6378,3.6427,3.6438,3.651,3.6552,3.6473,3.6478,3.6698,3.6703,3.6707,3.676,0,0,0,0,0,0,3.6193,3.6212,3.6248,3.6284,3.6302,3.6409,3.6359,3.6361,3.639,3.6385,3.6421,3.6424,3.6425,3.6502,3.6515,3.6558,3.6482,3.6694,3.67,3.6705,3.6755,3.6766,3.6776,0,0,0,0,0,3.6186,3.6259,3.625,3.6266,3.6347,3.6412,3.6422,3.6424,3.6394,3.6428,3.6442,3.6423,3.6545,3.6509,3.6524,3.6569,3.6692,3.6698,3.6705,3.675,3.6764,3.6775,0,0,0,0,0,0,3.6226,3.6264,3.6254,3.6341,3.6374,3.6407,3.645,3.6438,3.6479,3.6472,3.6471,3.6479,3.6553,3.6568,3.6527,3.6656,3.6614,3.6623,3.6643,3.6656,3.6666,3.6661,3.6487,0,0,0,0,0,3.6245,3.6297,3.6326,3.64,3.6417,3.6431,3.6459,3.6458,3.649,3.6503,3.6523,3.6553,3.6598,3.6628,3.6671,3.6757,3.6763,3.6795,3.6806,3.6814,3.6822,3.6867,3.6881,3.673,3.673,3.673,0,0,3.6285,3.6312,3.6344,3.6409,3.6434,3.6485,3.6443,3.6499,3.6536,3.6511,3.658,3.6595,3.6629,3.6708,3.6744,3.6723,3.6865,3.6822,3.6829,3.6833,3.6875,3.6889,3.6902,3.6735,3.6734,3.6733,0,0,3.6383,3.641,3.6474,3.65,3.6538,3.6547,3.6562,3.6597,3.6606,3.6676,3.6658,3.6701,3.6779,3.6804,3.6826,3.6932,3.6915,3.6946,3.7,3.7043,3.7055,3.7065,3.7101,3.7115,3.6954,3.6954,3.6954,0,3.6427,3.6505,3.6507,3.6565,3.6593,3.6574,3.6637,3.6662,3.6712,3.673,3.6707,3.6804,3.6825,3.6909,3.6935,3.6954,3.6969,3.6942,3.7054,3.7064,3.7074,3.7108,3.7122,3.6958,3.6957,3.6957,3.6957,0,3.6556,3.661,3.6657,3.6707,3.674,3.68,3.6809,3.6842,3.6837,3.6847,3.6917,3.6942,3.6989,3.7008,3.7004,3.7091,3.7076,3.7054,3.7011,3.7091,3.7123,3.7137,3.6963,3.6961,3.696,3.696,0,0,3.6682,3.6733,3.6749,3.6771,3.6812,3.6853,3.691,3.6958,3.6985,3.702,3.7066,3.7133,3.7111,3.7137,3.7135,3.7173,3.7253,3.7145,3.7145,3.7163,3.7347,3.7364,3.7379,3.7242,3.7245,3.7247,3.7344,0,3.6782,3.6886,3.6889,3.6983,3.7031,3.7014,3.7064,3.7093,3.7103,3.7144,3.7155,3.7202,3.7171,3.7186,3.7223,3.7235,3.7289,3.7228,3.7283,3.7285,3.7275,3.7396,3.7414,3.7505,3.7357,3.7359,3.736,0,3.6913,3.6953,3.7053,3.7085,3.7106,3.7151,3.7193,3.7234,3.7265,3.727,3.7298,3.729,3.7346,3.7302,3.7378,3.7337,3.7359,3.7368,3.7372,3.7376,3.7327,3.7402,3.7534,3.7547,3.7381,3.7379,3.7377,0,3.6993,3.7072,3.7141,3.716,3.72,3.7232,3.725,3.7279,3.7307,3.7343,3.736,3.7403,3.7425,3.7457,3.7459,3.7427,3.7535,3.7492,3.7538,3.7538,3.7561,3.7559,3.7697,3.7578,3.7577,3.7577,3.7577,0,3.7104,3.7165,3.7177,3.722,3.7287,3.7288,3.7353,3.7368,3.7394,3.7437,3.7423,3.7463,3.7464,3.7505,3.7506,3.7568,3.7578,3.7582,3.7581,3.7583,3.7582,3.7597,3.759,3.7581,3.758,3.7579,3.7579,0,3.7204,3.7216,3.7289,3.7321,3.7331,3.7378,3.7404,3.7443,3.7452,3.7507,3.7519,3.7533,3.758,3.7585,3.7639,3.764,3.7714,3.7707,3.7704,3.7702,3.7748,3.7743,3.7898,3.7918,3.7787,3.7788,3.7789,0,3.7274,3.7321,3.7358,3.7387,3.7406,3.7453,3.7481,3.7483,3.7513,3.7552,3.7585,3.7631,3.7668,3.7742,3.7756,3.7796,3.7789,3.7841,3.7795,3.7794,3.7788,3.7785,3.7789,3.785,3.7851,3.7852,3.7853,0,3.7396,3.7399,3.7442,3.7486,3.7521,3.7555,3.7587,3.7611,3.7617,3.765,3.7699,3.7727,3.7782,3.7827,3.7867,3.7882,3.7868,3.7868,3.788,3.7881,3.7877,3.7878,3.7726,3.7864,3.7863,3.7862,3.7861,3.7861,3.7482,3.7522,3.7554,3.7602,3.7626,3.7657,3.7695,3.7709,3.775,3.7796,3.7794,3.7847,3.7874,3.7927,3.7945,3.7984,3.7967,3.7986,3.799,3.7994,3.7998,3.7872,3.7992,3.7991,3.7991,3.7991,3.7991,0,3.7602,3.7622,3.7665,3.7712,3.7748,3.7734,3.7768,3.7799,3.7846,3.7874,3.7911,3.7965,3.8008,3.8024,3.8065,3.8093,3.8088,3.8104,3.8101,3.8105,3.8012,3.7997,3.8108,3.8108,3.8108,3.8108,3.8108,3.8108,3.7669,3.7735,3.7742,3.7819,3.7837,3.789,3.7911,3.7938,3.796,3.8022,3.8058,3.8069,3.8092,3.8134,3.8172,3.8176,3.819,3.8209,3.821,3.8123,3.8111,3.81,3.8085,3.8213,3.8213,3.8298,3.8299,3.83]}]]